EW7199 Weather Reports


time (UTC)temp
F
wind
direction
speed
knots
gust
knots
rain 1hr
in
rain 24hr
in
rain mn
in
humidity
%
barometer
mb
20260902103908 89 227 2.6 2.6 0.00 0.00 0.00 49 1016.0
20260902103408 89 222 2.6 2.6 0.00 0.00 0.00 50 1016.1
20260902102908 89 228 2.6 2.6 0.00 0.00 0.00 52 1016.2
20260902102408 89 229 1.7 2.6 0.00 0.00 0.00 55 1016.2
20260902101907 88 225 2.6 2.6 0.00 0.00 0.00 55 1016.2
20260902101407 88 220 2.6 2.6 0.00 0.00 0.00 60 1016.3
20260902100908 87 217 2.6 4.3 0.00 0.00 0.00 60 1016.3
20260902100409 87 246 2.6 4.3 0.00 0.00 0.00 62 1016.4
20260902095908 87 223 2.6 2.6 0.00 0.00 0.00 60 1016.4
20260902094908 87 220 1.7 2.6 0.00 0.00 0.00 60 1016.4
20260902093908 86 246 1.7 2.6 0.00 0.00 0.00 64 1016.3
20260902093407 87 247 1.7 2.6 0.00 0.00 0.00 63 1016.3
20260902092407 87 250 1.7 2.6 0.00 0.00 0.00 65 1016.4
20260902091907 86 214 1.7 2.6 0.00 0.00 0.00 62 1016.4
20260902091407 86 223 2.6 2.6 0.00 0.00 0.00 60 1016.4
20260902090908 86 224 2.6 2.6 0.00 0.00 0.00 62 1016.4
20260902090407 86 246 1.7 2.6 0.00 0.00 0.00 61 1016.4
20260902085907 86 235 2.6 2.6 0.00 0.00 0.00 62 1016.4
20260902085408 86 247 2.6 2.6 0.00 0.00 0.00 59 1016.5
20260902084906 86 246 1.7 2.6 0.00 0.00 0.00 58 1016.5
20260902084407 86 263 1.7 2.6 0.00 0.00 0.00 58 1016.5
20260902083908 86 238 1.7 2.6 0.00 0.00 0.00 59 1016.5
20260902083408 85 229 0.9 2.6 0.00 0.00 0.00 59 1016.5
20260902082907 85 248 1.7 2.6 0.00 0.00 0.00 60 1016.5
20260902082407 85 230 1.7 2.6 0.00 0.00 0.00 60 1016.5
20260902081410 85 236 1.7 2.6 0.00 0.00 0.00 56 1016.4
20260901193408 88 12 0.9 2.6 0.00 0.00 0.00 39 1015.9
20260901191908 88 140 0.0 1.7 0.00 0.00 0.00 44 1015.9
20260901191408 88 139 1.7 2.6 0.00 0.00 0.00 45 1015.8
20260901190908 88 63 1.7 2.6 0.00 0.00 0.00 40 1015.7
20260901190408 88 129 0.9 2.6 0.00 0.00 0.00 46 1015.6
20260901185908 89 128 0.9 2.6 0.00 0.00 0.00 44 1015.5
20260901185408 89 99 0.9 1.7 0.00 0.00 0.00 42 1015.5
20260901184908 89 94 0.9 2.6 0.00 0.00 0.00 37 1015.5
20260901184407 89 336 0.9 1.7 0.00 0.00 0.00 37 1015.4
20260901183908 89 285 0.0 1.7 0.00 0.00 0.00 39 1015.4
20260901183408 89 318 0.0 2.6 0.00 0.00 0.00 38 1015.4
20260901182909 89 356 0.9 2.6 0.00 0.00 0.00 39 1015.3
20260901181408 90 319 1.7 2.6 0.00 0.00 0.00 39 1015.2
20260901180410 90 340 0.0 2.6 0.00 0.00 0.00 39 1015.1
20260901175908 90 321 1.7 2.6 0.00 0.00 0.00 39 1015.0
20260901175408 90 255 0.9 1.7 0.00 0.00 0.00 40 1014.9
20260901174909 90 304 0.0 1.7 0.00 0.00 0.00 41 1014.9
20260901174408 90 291 0.9 2.6 0.00 0.00 0.00 42 1014.8
20260901173908 90 292 0.9 2.6 0.00 0.00 0.00 42 1014.7
20260901173409 90 337 0.9 2.6 0.00 0.00 0.00 42 1014.5
20260901172909 90 307 0.9 2.6 0.00 0.00 0.00 42 1014.5
20260901172407 90 283 0.9 2.6 0.00 0.00 0.00 42 1014.4
20260901171909 90 335 1.7 2.6 0.00 0.00 0.00 42 1014.4
20260901171409 90 323 0.9 2.6 0.00 0.00 0.00 43 1014.3
20260901170408 90 22 0.9 2.6 0.00 0.00 0.00 45 1014.2
20260901165908 90 66 0.9 2.6 0.00 0.00 0.00 47 1014.2
20260901165408 90 307 0.9 2.6 0.00 0.00 0.00 49 1014.2
20260901164909 90 38 0.9 2.6 0.00 0.00 0.00 50 1014.2
20260901164408 90 47 1.7 2.6 0.00 0.00 0.00 51 1014.1
20260901163908 91 352 0.9 2.6 0.00 0.00 0.00 52 1014.0
20260901163406 91 55 0.9 2.6 0.00 0.00 0.00 52 1014.0
20260901162908 91 42 1.7 2.6 0.00 0.00 0.00 52 1014.0
20260901162407 91 66 1.7 2.6 0.00 0.00 0.00 52 1013.9
20260901161409 91 35 1.7 2.6 0.00 0.00 0.00 52 1014.0
20260901160907 92 48 2.6 2.6 0.00 0.00 0.00 51 1014.0
20260901160408 92 16 1.7 2.6 0.00 0.00 0.00 50 1014.0
20260901155908 92 69 1.7 2.6 0.00 0.00 0.00 50 1014.0
20260901155408 93 46 1.7 2.6 0.00 0.00 0.00 51 1014.0
20260901154908 93 84 0.9 2.6 0.00 0.00 0.00 52 1014.0
20260901154416 92 37 0.9 2.6 0.00 0.00 0.00 52 1014.0
20260901153408 92 45 2.6 2.6 0.00 0.00 0.00 50 1014.1
20260901152907 92 44 1.7 2.6 0.00 0.00 0.00 51 1014.0
20260901152407 92 48 2.6 2.6 0.00 0.00 0.00 51 1013.9
20260901151907 92 50 1.7 2.6 0.00 0.00 0.00 51 1014.0
20260901151407 93 52 2.6 2.6 0.00 0.00 0.00 50 1014.0
20260901150908 93 77 1.7 2.6 0.00 0.00 0.00 50 1013.9
20260901150408 92 66 1.7 4.3 0.00 0.00 0.00 51 1013.9
20260901145908 92 51 1.7 4.3 0.00 0.00 0.00 51 1013.9
20260901145407 92 35 1.7 2.6 0.00 0.00 0.00 51 1013.9
20260901144907 92 51 1.7 4.3 0.00 0.00 0.00 51 1013.9
20260901144408 93 52 2.6 2.6 0.00 0.00 0.00 51 1013.9
20260901143907 93 24 0.9 2.6 0.00 0.00 0.00 52 1013.9
20260901143408 92 54 2.6 2.6 0.00 0.00 0.00 53 1013.9
20260901142908 92 77 2.6 2.6 0.00 0.00 0.00 53 1013.9
20260901142408 92 64 1.7 2.6 0.00 0.00 0.00 54 1014.0
20260901141906 93 14 2.6 2.6 0.00 0.00 0.00 54 1014.0
20260901141409 92 30 1.7 2.6 0.00 0.00 0.00 55 1014.0
20260901140906 92 61 2.6 4.3 0.00 0.00 0.00 55 1014.0
20260901140407 91 63 1.7 4.3 0.00 0.00 0.00 57 1014.0
20260901134908 91 56 2.6 2.6 0.00 0.00 0.00 59 1014.1
20260901134408 91 49 1.7 2.6 0.00 0.00 0.00 59 1014.2
20260901133907 91 42 1.7 2.6 0.00 0.00 0.00 59 1014.1
20260901133407 91 359 1.7 2.6 0.00 0.00 0.00 59 1014.2
20260901132908 92 231 1.7 2.6 0.00 0.00 0.00 59 1014.2
20260901132407 92 309 1.7 2.6 0.00 0.00 0.00 53 1014.2
20260901130908 91 4 1.7 2.6 0.00 0.00 0.00 58 1014.4
20260901130408 91 325 1.7 2.6 0.00 0.00 0.00 57 1014.4
20260901125908 92 330 2.6 4.3 0.00 0.00 0.00 54 1014.4
20260901124908 91 338 1.7 7.0 0.00 0.00 0.00 59 1014.4
20260901124408 92 312 2.6 7.0 0.00 0.00 0.00 58 1014.4
20260901123907 91 19 1.7 2.6 0.00 0.00 0.00 60 1014.4
20260901123408 90 266 1.7 2.6 0.00 0.00 0.00 62 1014.3
20260901122907 89 236 2.6 4.3 0.00 0.00 0.00 63 1014.3
20260901122407 90 229 1.7 2.6 0.00 0.00 0.00 64 1014.4
20260901121408 89 251 2.6 2.6 0.00 0.00 0.00 63 1014.5
20260901120408 89 234 2.6 2.6 0.00 0.00 0.00 65 1014.6
20260901115908 88 231 1.7 2.6 0.00 0.00 0.00 68 1014.7
20260901115408 89 268 2.6 2.6 0.00 0.00 0.00 63 1014.8
20260901114907 88 233 1.7 2.6 0.00 0.00 0.00 65 1014.7
20260901113907 88 251 1.7 2.6 0.00 0.00 0.00 64 1014.6
20260901113407 88 232 1.7 2.6 0.00 0.00 0.00 64 1014.6
20260901112905 88 235 1.7 2.6 0.00 0.00 0.00 64 1014.6
20260901112406 88 240 2.6 2.6 0.00 0.00 0.00 64 1014.7
20260901111906 88 238 1.7 2.6 0.00 0.00 0.00 62 1014.6
20260901111407 88 248 1.7 2.6 0.00 0.00 0.00 60 1014.7
20260901110906 88 255 1.7 2.6 0.00 0.00 0.00 62 1014.7
20260901110406 88 280 1.7 2.6 0.00 0.00 0.00 64 1014.7
20260901105906 87 242 2.6 2.6 0.00 0.00 0.00 63 1014.7
20260901105406 88 239 1.7 2.6 0.00 0.00 0.00 63 1014.7
20260901104906 88 256 2.6 2.6 0.00 0.00 0.00 63 1014.8
20260901104406 87 262 1.7 2.6 0.00 0.00 0.00 62 1014.8